Location: Kampung Segan
(3.1399°N, 113.1002°E)
Time: 13:28:32
(UTC+00:00)

ARIANE 2 DEB - Pass Details

Date: 05 August 2024
Orbit: 464 x 35168 km, 8.0° (Epoch: 09 September)

Event Time Altitude Azimuth Distance (km) Brightness Sun altitude
Exits shadow 20:37:19 63° 351° (N) 798 4.0 -26.7°
Maximum altitude 20:37:32 65° 10° (N) 815 4.1 -26.6°
Drops below altitude 10° 20:46:49 10° 92° (E) 4,948 9.0 -24.5°
Sets 20:55:53 0° 94° (E) 8,828 10.6 -22.3°
